Regional Weather Roundup
Issued by NWS State College, PA

Home | Current Version | Previous Version | Text Only | Print | Product List | Glossary On
Versions: 1 2 3 4 5 6 7 8 9 10 11 12 13 14 15 16 17 18 19 20 21 22 23 24 25 26 27 28 29 30 31 32 33 34 35 36 37 38 39 40 41 42 43 44 45 46 47 48 49 50
000
ASUS41 KCTP 240810
RWRCTP

REGIONAL WEATHER ROUNDUP
NATIONAL WEATHER SERVICE STATE COLLEGE PA
400 AM EDT FRI OCT 24 2014

Note: "fair" indicates few or no clouds below 12,000 feet with no
significant weather and/or obstructions to visibility.

* = STATION THAT DOES NOT REPORT PRECIPITATION /E.G. RAIN...SNOW...ETC/
    THUNDER OR FOG.

PAZ002>004-007>009-013>016-020>023-029>032-240900-
WESTERN PENNSYLVANIA

CITY           SKY/WX    TMP DP  RH WIND       PRES   REMARKS
ERIE           CLEAR     42  39  89 NW3       30.07S
MEADVILLE      PTCLDY    42  40  92 W6        30.06F FOG
FRANKLIN*      CLOUDY    43  39  87 W8        30.07R VSB 1/4
NEW CASTLE       N/A     39  39 100 CALM      30.09F FOG
BEAVER COUNTY  NOT AVBL
BUTLER*        CLEAR     41  37  87 W5        30.08F
PITTSBURGH INT PTCLDY    40  38  93 W6        30.08S
PITTSBURGH     CLEAR     44  38  79 W7        30.07R
INDIANA*       CLOUDY    46  45  93 W7        30.08S
LATROBE        NOT AVBL
WASHINGTON CO*   N/A     34  30  86 CALM      30.09F VSB 3/4
$$

PAZ004>006-010>012-017>019-024>028-033>037-041-042-045-046-049>053-240900-
CENTRAL PENNSYLVANIA

CITY           SKY/WX    TMP DP  RH WIND       PRES   REMARKS
BRADFORD       CLEAR     38  35  89 NW5       30.00S
DUBOIS         PTCLDY    43  42  97 W7        30.01S
CLEARFIELD     CLEAR     46  41  82 VRB5      30.01R
JOHNSTOWN      CLOUDY    44  40  85 NW16G22   30.00F
ALTOONA        PTCLDY    48  42  80 W9        29.99S
STATE COLLEGE  CLOUDY    49  42  75 NW7       29.98S
WILLIAMSPORT   CLOUDY    55  43  63 NW10      29.91F
SELINSGROVE    CLOUDY    56  43  61 NW8       29.92S
FT INDIANTOWN  CLEAR     56  45  66 VRB7G20   29.88S
CAPITAL CITY   CLOUDY    57  42  57 NW6G20    29.90S
HARRISBURG     MOCLDY    56  43  61 NW17      29.89R
YORK           PTCLDY    55  42  61 NW12      29.90R
$$

PAZ038>040-043-044-047-048-054-055-060>062-067>071-240900-
EASTERN PENNSYLVANIA

CITY           SKY/WX    TMP DP  RH WIND       PRES   REMARKS
SCRANTON       CLOUDY    51  43  74 NW10      29.87R
MOUNT POCONO   CLOUDY    46  42  86 NW15G31   29.81R
ALLENTOWN      CLOUDY    54  43  66 NW15G24   29.84R
QUAKERTOWN*    CLOUDY    54  45  71 NW10      29.84R
READING        CLOUDY    56  44  64 N9        29.86R
LANCASTER      CLOUDY    56  43  61 NW12      29.88R
COATESVILLE    CLOUDY    55  45  67 NW12G21   29.86R
POTTSTOWN      CLOUDY    55  44  66 NW13G23   29.85S
BLUE BELL      CLOUDY    54  46  76 CALM      29.83R
DOYLESTOWN     CLOUDY    52  45  77 NW7       29.82R
WILLOW GROVE   NOT AVBL
NORTH PHILA    CLOUDY    55  43  63 NW7       29.84R
PHILADELPHIA   PTCLDY    56  45  66 NW5       29.84R
$$



USA.gov is the U.S. government's official web portal to all federal, state and local government web resources and services.